TimeEDT,TemperatureF,Dew PointF,Humidity,Sea Level PressureIn,VisibilityMPH,Wind Direction,Wind SpeedMPH,Gust SpeedMPH,PrecipitationIn,Events,Conditions,WindDirDegrees,DateUTC
12:53 AM,28.9,21.9,75,30.05,10.0,NNW,5.8,-,N/A,,Clear,330,2013-03-23 04:53:00
1:53 AM,25.0,19.9,81,30.06,10.0,WNW,5.8,-,N/A,,Clear,290,2013-03-23 05:53:00
2:53 AM,26.1,19.9,78,30.05,10.0,WNW,3.5,-,N/A,,Clear,300,2013-03-23 06:53:00
3:53 AM,24.1,19.0,81,30.05,10.0,West,5.8,-,N/A,,Clear,270,2013-03-23 07:53:00
4:53 AM,23.0,19.0,85,30.04,10.0,West,4.6,-,N/A,,Clear,280,2013-03-23 08:53:00
5:53 AM,23.0,19.0,85,30.05,10.0,West,4.6,-,N/A,,Clear,280,2013-03-23 09:53:00
6:53 AM,23.0,19.0,85,30.06,10.0,WNW,4.6,-,N/A,,Clear,300,2013-03-23 10:53:00
7:53 AM,24.1,19.0,81,30.07,10.0,NNW,4.6,-,N/A,,Clear,330,2013-03-23 11:53:00
8:53 AM,28.0,23.0,81,30.09,9.0,NW,3.5,-,N/A,,Clear,310,2013-03-23 12:53:00
9:53 AM,30.9,25.0,79,30.11,10.0,Calm,Calm,-,N/A,,Clear,0,2013-03-23 13:53:00
10:53 AM,35.1,23.0,61,30.11,10.0,NNE,5.8,-,N/A,,Partly Cloudy,20,2013-03-23 14:53:00
11:16 AM,35.6,24.8,65,30.09,10.0,NE,5.8,-,N/A,,Mostly Cloudy,50,2013-03-23 15:16:00
11:35 AM,35.6,23.0,60,30.09,10.0,North,6.9,-,N/A,,Scattered Clouds,360,2013-03-23 15:35:00
11:43 AM,33.8,23.0,65,30.09,10.0,North,4.6,-,N/A,,Mostly Cloudy,10,2013-03-23 15:43:00
11:53 AM,34.0,23.0,64,30.11,10.0,NNE,8.1,-,N/A,,Mostly Cloudy,20,2013-03-23 15:53:00
12:28 PM,35.6,23.0,60,30.10,10.0,Calm,Calm,-,N/A,,Overcast,0,2013-03-23 16:28:00
12:53 PM,36.0,23.0,59,30.11,10.0,Variable,3.5,-,N/A,,Overcast,0,2013-03-23 16:53:00
1:53 PM,36.0,23.0,59,30.11,10.0,East,4.6,-,N/A,,Overcast,100,2013-03-23 17:53:00
2:53 PM,37.0,21.9,54,30.10,10.0,Calm,Calm,-,N/A,,Overcast,0,2013-03-23 18:53:00
3:53 PM,37.9,23.0,55,30.09,10.0,Variable,4.6,-,N/A,,Overcast,0,2013-03-23 19:53:00
4:53 PM,39.9,23.0,51,30.08,10.0,Variable,6.9,-,N/A,,Overcast,0,2013-03-23 20:53:00
5:53 PM,39.9,23.0,51,30.08,10.0,Variable,6.9,-,N/A,,Scattered Clouds,0,2013-03-23 21:53:00
6:53 PM,39.0,21.0,49,30.08,10.0,East,4.6,-,N/A,,Clear,90,2013-03-23 22:53:00
7:53 PM,35.1,23.0,61,30.07,10.0,ENE,5.8,-,N/A,,Clear,70,2013-03-23 23:53:00
8:53 PM,32.0,21.9,66,30.08,10.0,East,3.5,-,N/A,,Clear,100,2013-03-24 00:53:00
9:53 PM,30.9,21.9,69,30.08,10.0,East,4.6,-,N/A,,Clear,80,2013-03-24 01:53:00
10:53 PM,28.9,21.0,72,30.08,10.0,East,3.5,-,N/A,,Clear,100,2013-03-24 02:53:00
11:53 PM,27.0,19.9,75,30.05,10.0,East,4.6,-,N/A,,Clear,80,2013-03-24 03:53:00